Location: Gudip?du
(17.0263°N, 80.8301°E)
Time: 01:22:00
(UTC+00:00)

Meteor 2-20 - Pass Details

Date: 03 August 2024
Orbit: 938 x 958 km, 82.5° (Epoch: 12 September)

Event Time Altitude Azimuth Distance (km) Brightness Sun altitude
Rises 23:13:59 0° 185° (S) 3,625 7.2 -15.0°
Reaches altitude 10° 23:16:29 10° 186° (S) 2,679 6.5 -14.5°
Maximum altitude 23:22:37 83° 273° (W) 963 4.4 -13.1°
Drops below altitude 10° 23:28:45 10° 2° (N) 2,672 7.1 -11.8°
Sets 23:31:14 0° 4° (N) 3,615 7.8 -11.2°
